Regional Weather Roundup
Issued by NWS

Home | Current Version | Previous Version | Graphics & Text | Print | Product List | Glossary On
Versions: 1 2 3 4 5 6 7 8 9 10 11 12 13 14 15 16 17 18 19 20 21 22 23 24 25 26 27 28 29 30 31 32 33 34 35 36 37 38 39 40 41 42 43 44 45 46 47 48 49 50
000
ASUS43 KFSD 240202
RWRSD

WEATHER ROUNDUP FOR SOUTH DAKOTA
NATIONAL WEATHER SERVICE SIOUX FALLS SD
800 PM CST MON JAN 23 2017

NOTE: "FAIR" INDICATES FEW OR NO CLOUDS BELOW 12,000 FEET WITH NO
SIGNIFICANT WEATHER AND/OR OBSTRUCTIONS TO VISIBILITY.


SDZ001>005-009-010-012>017-240300-
NORTHWEST AND NORTH CENTRAL SOUTH DAKOTA

CITY           SKY/WX    TMP DP  RH WIND       PRES   REMARKS
BUFFALO          N/A     24  20  84 CALM      29.68R
FAITH            N/A     26  24  92 NE10      29.75R WCI  16
MOBRIDGE       LGT SNOW  29  24  82 NE7       29.76R WCI  22
$$

SDZ012>016-024>037-041>051-057-063-072>074-240300-
SOUTHWEST AND SOUTH CENTRAL SOUTH DAKOTA

CITY           SKY/WX    TMP DP  RH WIND       PRES   REMARKS
RAPID CTY ARPT CLOUDY    23  21  92 N14       29.71R FOG     WCI  11
PIERRE         CLOUDY    29  26  89 E9        29.74R WCI  20
CUSTER         CLOUDY    24  20  84 NE5       29.58S WCI  18
ELLSWORTH AFB  FOG       23  23 100 N14       29.71  VSB 3/8 WCI  10
PHILIP         CLOUDY    28  28 100 NE9       29.73R WCI  19
PINE RIDGE     CLOUDY    27  27 100 N10       29.66R FOG     WCI  17
SPEARFISH      FOG       19  18  93 CALM      29.70S VSB<1/4
WINNER         CLOUDY    32  28  85 E12       29.71R WCI  23
$$

SDZ004>011-016>023-039-040-240300-
NORTHEAST SOUTH DAKOTA

CITY           SKY/WX    TMP DP  RH WIND       PRES   REMARKS
ABERDEEN       LGT SNOW  30  26  85 E6        29.81S FOG     WCI  24
WATERTOWN      CLOUDY    28  26  92 E6        29.78F WCI  22
BROOKINGS      CLOUDY    30  27  88 E6        29.80S WCI  24
SISSETON         N/A     31  28  89 S3        29.82F
$$

SDZ017-020-022-023-036>040-048>070-240300-
SOUTHEAST SOUTH DAKOTA

CITY           SKY/WX    TMP DP  RH WIND       PRES   REMARKS
SIOUX FALLS    CLOUDY    31  30  96 SE6       29.82R WCI  25
HURON          CLOUDY    31  29  92 SE3       29.80R
CHAMBERLAIN    CLOUDY    32  30  92 SE13      29.75R WCI  22
MITCHELL       CLOUDY    32  29  88 SE13      29.80S WCI  22
YANKTON        MOCLDY    30  27  86 E7        29.80S WCI  23
$$

ABBREVIATIONS USED IN REMARKS
   TC - TEMPERATURE IN CELSIUS
  WCI - WIND CHILL INDEX
   HX - HEAT INDEX
  VSB - VISIBILITY




USA.gov is the U.S. government's official web portal to all federal, state and local government web resources and services.